Regional Weather Roundup
Issued by NWS

Home | Current Version | Previous Version | Graphics & Text | Print | Product List | Glossary On
Versions: 1 2 3 4 5 6 7 8 9 10 11 12 13 14 15 16 17 18 19 20 21 22 23 24 25 26 27 28 29 30 31 32 33 34 35 36 37 38 39 40 41 42 43 44 45 46 47 48 49 50
000
ASUS43 KOAX 230110
RWRNE

WEATHER ROUNDUP FOR NEBRASKA
NATIONAL WEATHER SERVICE OMAHA NE
800 PM CDT TUE JUL 22 2014

NOTES: SATELLITE DATA IS BEING USED TO AUGMENT CLOUD COVER ABOVE
       12000 FEET.
       "FAIR" INDICATES FEW OR NO CLOUDS BELOW 12,000 FEET WITH NO
       SIGNIFICANT WEATHER AND/OR OBSTRUCTIONS TO VISIBILITY.

  * THESE STATIONS DO NOT REPORT WEATHER SUCH AS RAIN...SNOW OR FOG.

NEZ001>004-019>022-054>056-230200-
NEBRASKA PANHANDLE

CITY           SKY/WX    TMP DP  RH WIND       PRES   REMARKS
SCOTTSBLUFF    MOSUNNY   89  59  36 E14       30.19S
ALLIANCE       SUNNY     90  53  28 SE14      30.21R
CHADRON        SUNNY     89  59  36 E17       30.14S
KIMBALL        PTSUNNY   84  53  34 SE5       30.27R
SIDNEY         SUNNY     88  56  33 SE14      30.25R
$$

NEZ057>060-069>072-079>082-230200-
SOUTHWEST NEBRASKA

CITY           SKY/WX    TMP DP  RH WIND       PRES   REMARKS
NORTH PLATTE   SUNNY     85  64  49 E15       30.17R
IMPERIAL       SUNNY     88  61  40 E12       30.18S
LEXINGTON      SUNNY     85  67  54 E9        30.16S
MCCOOK         SUNNY     86  64  47 E16       30.14S
OGALLALA       SUNNY     85  60  42 E9        30.19S
$$

NEZ005>010-023>029-035>040-094-230200-
NORTH CENTRAL NEBRASKA

CITY           SKY/WX    TMP DP  RH WIND       PRES   REMARKS
VALENTINE      SUNNY     84  61  45 E9        30.20S
AINSWORTH      SUNNY     78  63  59 E6        30.22S
BROKEN BOW     SUNNY     83  65  54 E10       30.18S
O`NEILL        SUNNY     81  62  53 E7        30.19S
ORD            SUNNY     80  64  58 NE8       30.16S
THEDFORD       SUNNY     85  64  49 E12       30.21S
$$

NEZ041-046>049-061>064-073>077-083>087-230200-
SOUTH CENTRAL NEBRASKA

CITY           SKY/WX    TMP DP  RH WIND       PRES   REMARKS
GRAND ISLAND   CLEAR     82  69  64 NE8       30.15S
AURORA         CLEAR     83  70  64 NE12      30.15R
HASTINGS       CLEAR     84  67  56 NE14      30.14R
HEBRON         CLEAR     88  69  52 NE9       30.09R HX  92
HOLDREGE       CLEAR     83  66  56 NE8       30.15R
KEARNEY *      CLEAR     84  66  54 NE15      30.16R
YORK           CLEAR     82  72  69 N12       30.14R
$$

NEZ011>018-030>034-042>045-230200-
NORTHEAST NEBRASKA

CITY           SKY/WX    TMP DP  RH WIND       PRES   REMARKS
NORFOLK        CLEAR     81  66  60 N13       30.16R
ALBION         CLEAR     78  66  66 NE5       30.18S
BLAIR          PTCLDY    80  67  63 N12       30.12S
COLUMBUS *     CLEAR     81  66  61 NE10      30.16R
FREMONT        CLEAR     82  67  61 N6        30.14R
TEKAMAH        CLEAR     83  68  60 N8        30.12S
WAYNE          CLEAR     80  69  68 NE8       30.16S
$$

NEZ050>053-065>068-078-088>093-230200-
SOUTHEAST NEBRASKA

CITY           SKY/WX    TMP DP  RH WIND       PRES   REMARKS
LINCOLN        CLEAR     86  68  54 N15       30.11R
OMAHA EPPLEY   PTCLDY    83  68  60 N18       30.10R
BEATRICE       CLEAR     83  71  67 NE7       30.08S
FALLS CITY     CLEAR     87  78  74 N7        30.04R HX 100
NEBRASKA CITY  CLEAR     82  74  74 N9        30.08S
PLATTSMOUTH    CLEAR     84  67  57 N12       30.10R
$$

NEZ044-045-051>053-067-230200-
OMAHA AREA

CITY           SKY/WX    TMP DP  RH WIND       PRES   REMARKS
OMAHA EPPLEY   PTCLDY    83  68  60 N18       30.10R
BLAIR          PTCLDY    80  67  63 N12       30.12S
FREMONT        CLEAR     82  67  61 N6        30.14R
MILLARD        CLEAR     83  70  64 N5        30.11R
OFFUTT AFB     PTCLDY    83  71  65 N8        30.10R
PLATTSMOUTH    CLEAR     84  67  57 N12       30.10R
WAHOO          FAIR      82  69  64 N8        30.12S
$$


USA.gov is the U.S. government's official web portal to all federal, state and local government web resources and services.